Regional Weather Roundup
Issued by NWS

Home | Current Version | Previous Version | Text Only | Print | Product List | Glossary Off
Versions: 1 2 3 4 5 6 7 8 9 10 11 12 13 14 15 16 17 18 19 20 21 22 23 24 25 26 27 28 29 30 31 32 33 34 35 36 37 38 39 40 41 42 43 44 45 46 47 48 49 50

000
ASUS43 KMKX 140559
RWRWI

WISCONSIN REGIONAL WEATHER ROUNDUP
NATIONAL WEATHER SERVICE MILWAUKEE/SULLIVAN WI
1200 AM CST THU DEC 14 2017

NOTE: "FAIR" INDICATES FEW OR NO CLOUDS BELOW 12,000 FEET WITH NO
SIGNIFICANT WEATHER AND/OR OBSTRUCTIONS TO VISIBILITY.

WIZ001-002-006>008-014>016-023>028-140700-
NORTHWEST WISCONSIN

CITY           SKY/WX    TMP DP  RH WIND       PRES   REMARKS
SUPERIOR ARPT  CLEAR      9   7  90 CALM      29.97R
6HR MIN TEMP:   9; 6HR MAX TEMP:  24;

ASHLAND        PTCLDY    11   8  88 NW6       29.94R WCI   1
6HR MIN TEMP:  11; 6HR MAX TEMP:  22; 6HR PCP: TRACE;

HAYWARD        CLOUDY    18  13  80 CALM      29.91R
6HR MIN TEMP:  13; 6HR MAX TEMP:  21; 6HR PCP: TRACE;

SIREN          CLOUDY    12  10  91 N3        29.94R
CUMBERLAND     CLOUDY    14  10  85 NW5       29.91R WCI   6
RICE LAKE      MOCLDY    15  13  93 CALM      29.93R
CHETEK         CLOUDY    15  13  92 CALM      29.92R
LADYSMITH      CLEAR     11   9  90 NW6       29.91R WCI   2
6HR MIN TEMP:   9; 6HR MAX TEMP:  17;

EAU CLAIRE     NOT AVBL
MENOMONIE      CLEAR     11   8  89 SW3       29.94R
6HR MIN TEMP:  10; 6HR MAX TEMP:  20;

NEW RICHMOND   CLOUDY     7   4  85 CALM      29.94R
OSCEOLA        MOCLDY    17  15  91 CALM      29.97R
$$

WIZ003>005-009-010-017-018-140700-
NORTH CENTRAL WISCONSIN

CITY           SKY/WX    TMP DP  RH WIND       PRES   REMARKS
MANITOWISH WTR CLOUDY    14  11  89 CALM      29.83S
ARBOR VITAE    CLOUDY    17  11  78 N6        29.83R WCI   8
WOODRUFF       CLOUDY    17  11  78 N6        29.83R WCI   8
RHINELANDER    CLOUDY    15   9  76 NW6       29.83R WCI   6
6HR MIN TEMP:  13; 6HR MAX TEMP:  16; 6HR PCP: TRACE;

EAGLE RIVER    LGT SNOW  14  10  83 NW5       29.82R WCI   7
6HR MIN TEMP:  13; 6HR MAX TEMP:  16;

LAND O LAKES   CLOUDY    14   8  76 N8        29.83S WCI   3
6HR MIN TEMP:  14; 6HR MAX TEMP:  17;

PHILLIPS       FLURRIES  12  11  95 NW3       29.85S
6HR MIN TEMP:   8; 6HR MAX TEMP:  15;

TOMAHAWK       CLOUDY    13  11  89 NW3       29.85R
MEDFORD        MOCLDY    11   8  89 N3        29.84S
MERRILL        FLURRIES  13  10  88 CALM      29.86S
6HR MIN TEMP:  11; 6HR MAX TEMP:  18;

$$

WIZ029-030-035-036-043>047-140700-
CENTRAL WISCONSIN

CITY           SKY/WX    TMP DP  RH WIND       PRES   REMARKS
WAUSAU         PTCLDY    11   8  88 NW5       29.85R WCI   3
6HR MIN TEMP:  11; 6HR MAX TEMP:  18; 6HR PCP: TRACE;

MOSINEE        FLURRIES  10   9  92 NW6       29.86  WCI   1
MARSHFIELD     PTCLDY     8   5  87 N7        29.86R WCI  -3
6HR MIN TEMP:   5; 6HR MAX TEMP:  19; 6HR PCP: TRACE;

STEVENS POINT  CLOUDY     3   1  93 CALM      29.87S
WAUPACA        CLOUDY     8   4  81 CALM      29.89R
6HR MIN TEMP:   8; 6HR MAX TEMP:  23;

WAUTOMA        CLOUDY     5   1  83 CALM      29.90R
6HR MIN TEMP:   5; 6HR MAX TEMP:  23;

WISC RAPIDS    CLOUDY    10   7  87 N5        29.90R WCI   2
6HR MIN TEMP:   9; 6HR MAX TEMP:  21; 6HR PCP: TRACE;

CAMP DOUGLAS   NOT AVBL
$$

WIZ011>013-019>022-031-037>040-048>050-140700-
NORTHEAST WISCONSIN

CITY           SKY/WX    TMP DP  RH WIND       PRES   REMARKS
ANTIGO         FLURRIES   7   5  92 NW6       29.83R WCI  -3
SHAWANO        CLOUDY     8   6  90 CALM      29.87R
6HR MIN TEMP:   7; 6HR MAX TEMP:  20;

OCONTO         CLOUDY    -2  -5  85 CALM      29.86S
STURGEON BAY   PTCLDY    16  12  84 NW9       29.84R WCI   4
6HR MIN TEMP:  15; 6HR MAX TEMP:  22; 6HR PCP: TRACE;

GREEN BAY      CLOUDY     6   3  87 NW9       29.87S WCI  -8
6HR MIN TEMP:   5; 6HR MAX TEMP:  25; 6HR PCP:  0.01;

MANITOWOC      FLURRIES  14   9  80 NW7       29.85R WCI   4
6HR MIN TEMP:  13; 6HR MAX TEMP:  25; 6HR PCP:  0.01;

APPLETON       CLOUDY    10   5  79 NW5       29.84R WCI   2
CLINTONVILLE   CLOUDY    10   7  85 W5        29.87  WCI   2
OSHKOSH        CLEAR     13   8  81 NW9       29.87R WCI   1
6HR MIN TEMP:  12; 6HR MAX TEMP:  26; 6HR PCP: TRACE;

$$

WIZ032>034-041-042-053>061-140700-
SOUTHWEST WISCONSIN

CITY           SKY/WX    TMP DP  RH WIND       PRES   REMARKS
LA CROSSE      PTCLDY    15  10  80 NW6       29.95R WCI   6
6HR MIN TEMP:  15; 6HR MAX TEMP:  24;

SPARTA         CLEAR     15  13  89 CALM      29.93R
VIROQUA        PTCLDY    16  14  91 N7        29.89R WCI   6
6HR MIN TEMP:  16; 6HR MAX TEMP:  21;

BOSCOBEL       CLOUDY    19  13  77 CALM      29.93R
6HR MIN TEMP:  19; 6HR MAX TEMP:  26;

PRAIRIE DU CHI PTCLDY    21  12  68 CALM      29.93R
PLATTEVILLE    CLOUDY    22  16  78 N14       29.87R WCI   9
$$

WIZ056-057-062-063-064-067-068-140700-
SOUTH CENTRAL WISCONSIN

CITY           SKY/WX    TMP DP  RH WIND       PRES   REMARKS
REEDSBURG      CLOUDY    19  13  79 N6        29.90R WCI  10
BARABOO/DELLS  CLOUDY    17  11  77 N7        29.89R WCI   8
LONE ROCK      NOT AVBL
MINERAL POINT  CLOUDY    23  18  80 N10G17    29.86R WCI  12
MADISON        CLEAR     15  10  80 N13       29.87R WCI   1
6HR MIN TEMP:  15; 6HR MAX TEMP:  23; 6HR PCP: TRACE;

MIDDLETON      CLEAR     19  14  79 N9        29.87R WCI   9
WATERTOWN      PTCLDY    15  10  81 N9        29.86R WCI   3
MONROE         MOCLDY    21  14  73 N13G26    29.84R WCI   9
JANESVILLE     PTCLDY    21  14  73 N12G17    29.85R WCI   9
$$

WIZ051-052-058>065-066-070>072-140700-
SOUTHEAST WISCONSIN

CITY           SKY/WX    TMP DP  RH WIND       PRES   REMARKS
MILWAUKEE      PTCLDY    20  13  74 NW12G22   29.83R WCI   8
6HR MIN TEMP:  20; 6HR MAX TEMP:  30; 6HR PCP:  0.01;

WAUKESHA       CLEAR     14  10  85 NW10      29.84R WCI   1
MILWAUKEE/TIMM CLEAR     18  10  73 N12       29.83R WCI   5
RACINE         MOCLDY    22  14  71 NW15G24   29.84R WCI   9
6HR MIN TEMP:  22; 6HR MAX TEMP:  29; 6HR PCP: TRACE;

BURLINGTON     PTCLDY    19  15  84 N9        29.82R WCI   9
KENOSHA        PTCLDY    22  15  75 N12G22    29.81R WCI  10
6HR MIN TEMP:  22; 6HR MAX TEMP:  29; 6HR PCP: TRACE;

FOND DU LAC    FLURRIES  13   5  70 NW8       29.87R WCI   2
6HR MIN TEMP:  13; 6HR MAX TEMP:  26; 6HR PCP: TRACE;

SHEBOYGAN      CLEAR     14   8  77 N10       29.83R WCI   1
6HR MIN TEMP:  14; 6HR MAX TEMP:  25; 6HR PCP: TRACE;

WEST BEND      PTCLDY    14  10  85 N7        29.83R WCI   4
JUNEAU         CLEAR     14   8  76 N13G18    29.87R WCI  -1
$$

LSZ147-162-140700-
LAKE SUPERIOR

STATION/POSITION TIME  TEMP    WIND        PRES    WAVE
                       AIR SEA DIR/SP/G            HT/PER
                 (UTC) (F)     (DEG/KT/KT) (MB)    (FT/S)
DEVILS ISLAND    0500   18      10/  9/ 11 1015.1R
SAXON HARBOR     0540   22                 1012.9S
$$

LMZ867-665-643>646-140700-
LAKE MICHIGAN

STATION/POSITION TIME  TEMP    WIND        PRES    WAVE
                       AIR SEA DIR/SP/G            HT/PER
                 (UTC) (F)     (DEG/KT/KT) (MB)    (FT/S)
NORTHPORT PIER   0550   21     330/ 16/ 20 1009.8R
KEWAUNEE LAKESHO 0530   15     310/  5/  7 1009.9R
SHEBOYGAN LAKESH 0500   21     340/ 24/ 27 1010.3R
PORT WASHINGTON  0540   18     330/  8/ 19 1011.2R
MILWAUKEE LAKESH 0530   21     340/ 15/ 19   N/A
KENOSHA   LAKESH 0500   26     350/ 21/ 26 1007.5
$$

TC  - TEMPERATURE IN CELSIUS
VSB - VISIBILITY IN STATUTE MILES
WCI - WIND CHILL INDEX
HX  - HEAT INDEX





USA.gov is the U.S. government's official web portal to all federal, state and local government web resources and services.